Location: Aiyekoto
(8.4333°N, 4.3667°E)
Time: 23:09:53
(UTC+00:00)

USA 229 DEB - Pass Details

Date: 07 June 2020
Orbit: 983 x 1229 km, 63.4° (Epoch: 24 June)

Event Time Altitude Azimuth Distance (km) Brightness Sun altitude
Rises 03:07:17 0° 334° (NNW) 4,087 6.8 -30.8°
Reaches altitude 10° 03:10:00 10° 334° (NNW) 3,144 6.2 -30.2°
Maximum altitude 03:17:38 81° 248° (WSW) 1,241 3.8 -28.6°
Drops below altitude 10° 03:25:21 10° 161° (SSE) 3,172 6.0 -27.0°
Sets 03:28:06 0° 160° (SSE) 4,124 6.7 -26.4°
